Location: Buckenweiler
(49.0667°N, 10.2500°E)
Time: 18:17:13
(UTC+00:00)

NOAA 12 - Pass Details

Date: 13 April 2026
Orbit: 792 x 813 km, 98.6° (Epoch: 12 May)

Event Time Altitude Azimuth Distance (km) Brightness Sun altitude
Rises 03:19:16 0° 25° (NNE) 3,334 8.3 -11.9°
Reaches altitude 10° 03:22:10 10° 41° (NE) 2,394 7.8 -11.5°
Maximum altitude 03:26:12 22° 91° (E) 1,703 6.7 -10.9°
Drops below altitude 10° 03:30:11 10° 141° (SE) 2,369 6.7 -10.3°
Sets 03:33:02 0° 156° (SSE) 3,290 7.3 -9.9°
